Location: East Guldeford
(50.9500°N, 0.7500°E)
Time: 17:39:39
(UTC+00:00)

Cosmos 1733 - Pass Details

Date: 12 May 2021
Orbit: 504 x 520 km, 82.5° (Epoch: 16 June)

Event Time Altitude Azimuth Distance (km) Brightness Sun altitude
Rises 23:41:13 0° 355° (N) 2,623 8.4 -20.6°
Reaches altitude 10° 23:43:27 10° 3° (N) 1,734 7.0 -20.6°
Maximum altitude 23:47:02 40° 74° (ENE) 768 4.1 -20.6°
Enters shadow 23:47:44 36° 102° (ESE) 825 4.0 -20.7°
